DW1549 Fauske NO current weather conditions

sailwx.info

Wind from 243 at 4 knots gusting 10

Air temperature 14.4° C
Dewpoint 12.5° C

Last reported at 2014-Jul-28 19:43 UTC.
Time now 2014-Jul-28 20:29 UTC

Location: N 67°16' E 015°25'.
View on Google Maps.

See reports from other nearby stations

  
Tides and Currents Weather Stations Pressure Air Temp Water Temp Dewpoint Dewpoint Depression Visibility Wind Speed Wind Dir Waves Ship Positions
date/time (UTC)wind fromknots sea level pressurealtimeterstation pressurevisibilityair tempwater tempwave heightnotes
2014-Jul-28 19:43 243 4 gusting 10 14.4
2014-Jul-28 19:33 228 0 gusting 10 14.4
2014-Jul-28 19:23 215 5 gusting 10 14.4
2014-Jul-28 19:13 203 2 gusting 8 14.4
2014-Jul-28 19:03 231 2 gusting 6 15.0
2014-Jul-28 18:53 231 2 gusting 7 15.0
2014-Jul-28 18:43 220 2 gusting 6 15.0
2014-Jul-28 18:33 218 2 gusting 10 15.0
2014-Jul-28 18:23 234 15.0
2014-Jul-28 18:13 242 1 gusting 6 15.6
2014-Jul-28 18:03 223 1 gusting 6 15.6
2014-Jul-28 17:53 225 1 gusting 8 15.6
2014-Jul-28 17:43 237 1 gusting 6 16.1
2014-Jul-28 17:33 221 2 gusting 6 16.1
2014-Jul-28 17:23 219 1 gusting 7 16.1
2014-Jul-28 17:13 193 0 gusting 6 16.1
2014-Jul-28 17:03 190 2 gusting 8 16.1
2014-Jul-28 16:53 203 2 gusting 10 16.1
2014-Jul-28 16:43 213 3 gusting 6 16.7
2014-Jul-28 16:33 207 0 gusting 10 16.7
2014-Jul-28 16:23 221 4 gusting 11 16.7
2014-Jul-28 16:13 212 2 gusting 10 16.7
2014-Jul-28 16:03 222 3 gusting 8 16.7
2014-Jul-28 15:53 199 3 gusting 8 17.2
2014-Jul-28 15:43 239 3 gusting 10 17.2
2014-Jul-28 15:33 193 3 gusting 8 18.3
2014-Jul-28 15:23 205 4 gusting 10 18.3
2014-Jul-28 15:13 208 4 gusting 10 18.3
2014-Jul-28 15:03 241 2 gusting 8 18.3
2014-Jul-28 14:53 226 4 gusting 10 18.3
2014-Jul-28 14:43 224 1 gusting 10 18.3
2014-Jul-28 14:33 233 6 gusting 12 18.3
2014-Jul-28 14:13 237 5 gusting 13 18.9
2014-Jul-28 14:03 252 4 gusting 11 18.9
2014-Jul-28 13:53 226 2 gusting 14 17.8
2014-Jul-28 13:43 242 5 gusting 13 18.9
2014-Jul-28 13:33 242 4 gusting 11 20.0
2014-Jul-28 13:23 227 5 gusting 13 20.0
2014-Jul-28 13:13 236 6 gusting 12 19.4
2014-Jul-28 13:03 239 5 gusting 14 20.0
2014-Jul-28 12:53 300 5 gusting 13 19.4
2014-Jul-28 12:43 240 6 gusting 13 20.0
2014-Jul-28 12:33 233 4 gusting 11 20.0
2014-Jul-28 12:23 252 4 gusting 11 20.6
2014-Jul-28 12:13 241 2 gusting 11 20.6
2014-Jul-28 12:03 244 2 gusting 8 20.6
2014-Jul-28 11:53 225 4 gusting 8 20.6
2014-Jul-28 11:43 226 2 gusting 6 20.0
2014-Jul-28 11:33 224 3 gusting 6 19.4
2014-Jul-28 11:23 211 2 gusting 8 20.0
2014-Jul-28 11:13 189 4 gusting 10 19.4
2014-Jul-28 11:03 200 2 gusting 6 18.9
2014-Jul-28 10:53 204 1 gusting 4 18.3
2014-Jul-28 10:43 204 1 gusting 5 18.9
2014-Jul-28 10:33 207 0 gusting 4 18.9
2014-Jul-28 10:23 207 18.9
2014-Jul-28 10:13 207 18.9
2014-Jul-28 10:03 207 19.4
2014-Jul-28 09:53 207 0 gusting 2 19.4
2014-Jul-28 09:43 207 19.4
2014-Jul-28 09:33 207 18.9
2014-Jul-28 09:23 207 18.9
2014-Jul-28 09:13 207 17.8
2014-Jul-28 09:03 207 17.8
2014-Jul-28 08:53 207 17.2
2014-Jul-28 08:43 217 0 gusting 2 17.2
2014-Jul-28 08:33 217 17.8
2014-Jul-28 08:23 217 17.8
2014-Jul-28 08:13 217 17.2
2014-Jul-28 08:03 217 17.2
2014-Jul-28 07:53 217 16.7
2014-Jul-28 07:43 217 16.7
2014-Jul-28 07:33 217 16.7
2014-Jul-28 07:23 217 16.7
2014-Jul-28 07:13 217 16.1
2014-Jul-28 07:03 217 16.1
2014-Jul-28 06:53 217 0 gusting 2 15.6
2014-Jul-28 06:43 218 1 gusting 2 15.6
2014-Jul-28 06:33 220 15.6
2014-Jul-28 06:23 220 15.6
2014-Jul-28 06:13 220 15.6
2014-Jul-28 06:03 223 15.0
2014-Jul-28 05:53 223 15.0
2014-Jul-28 05:43 222 1 gusting 7 15.0
2014-Jul-28 05:33 201 0 gusting 2 15.0
2014-Jul-28 05:23 201 15.0
2014-Jul-28 05:13 201 15.0
2014-Jul-28 05:03 201 15.0
2014-Jul-28 04:53 201 0 gusting 2 14.4
2014-Jul-28 04:43 201 14.4
2014-Jul-28 04:33 201 0 gusting 2 14.4
2014-Jul-28 04:23 201 14.4
2014-Jul-28 04:13 201 14.4
2014-Jul-28 04:03 201 13.9
2014-Jul-28 03:53 201 13.9
2014-Jul-28 03:43 201 13.3
2014-Jul-28 03:33 201 13.3
2014-Jul-28 03:23 201 12.8
2014-Jul-28 03:13 201 12.8
2014-Jul-28 03:03 201 12.8
2014-Jul-28 02:53 201 12.8
2014-Jul-28 02:43 201 12.8
2014-Jul-28 02:33 201 12.8
2014-Jul-28 02:23 201 12.8
2014-Jul-28 02:13 201 12.8
2014-Jul-28 02:03 201 12.8
2014-Jul-28 01:53 201 12.8
2014-Jul-28 01:43 201 12.8
2014-Jul-28 01:33 201 12.8
2014-Jul-28 01:23 201 12.8
2014-Jul-28 01:13 201 13.3
2014-Jul-28 01:03 201 13.3
2014-Jul-28 00:53 201 13.3
2014-Jul-28 00:43 201 13.3
2014-Jul-28 00:33 201 13.3
2014-Jul-28 00:23 201 13.3
2014-Jul-28 00:13 201 13.3
2014-Jul-28 00:03 201 13.9
2014-Jul-27 23:53 201 13.9
2014-Jul-27 23:43 201 13.9
2014-Jul-27 23:33 201 13.9
2014-Jul-27 23:23 201 13.9
2014-Jul-27 23:13 201 14.4
2014-Jul-27 23:03 201 14.4
2014-Jul-27 22:53 201 14.4
2014-Jul-27 22:43 201 14.4
2014-Jul-27 22:33 201 14.4
2014-Jul-27 22:23 201 15.0
2014-Jul-27 22:13 201 15.0
2014-Jul-27 22:03 201 15.6
2014-Jul-27 21:53 201 15.6
2014-Jul-27 21:43 201 15.6
2014-Jul-27 21:33 201 16.1
2014-Jul-27 21:23 201 16.1
2014-Jul-27 21:13 201 16.7
2014-Jul-27 21:03 201 17.2
2014-Jul-27 20:53 201 17.2
2014-Jul-27 20:43 201 17.8
2014-Jul-27 20:33 202 0 gusting 2 17.8
2014-Jul-27 20:23 202 18.3
2014-Jul-27 20:13 202 0 gusting 5 18.3
2014-Jul-27 20:03 228 0 gusting 2 18.3
2014-Jul-27 19:53 229 18.3
2014-Jul-27 19:43 229 18.3
2014-Jul-27 19:33 229 18.9
2014-Jul-27 19:23 229 18.9
2014-Jul-27 19:13 229 19.4
2014-Jul-27 19:03 229 19.4
2014-Jul-27 18:53 229 20.0
2014-Jul-27 18:43 229 20.0
2014-Jul-27 18:33 229 20.6
2014-Jul-27 18:23 229 0 gusting 2 21.1
2014-Jul-27 18:13 234 21.1
2014-Jul-27 18:03 234 21.7
2014-Jul-27 17:53 234 21.7
2014-Jul-27 17:43 235 22.2
2014-Jul-27 17:33 235 22.2
2014-Jul-27 17:23 232 0 gusting 4 22.2
2014-Jul-27 17:13 229 0 gusting 2 22.8
2014-Jul-27 17:03 232 22.8
2014-Jul-27 16:53 241 22.8
2014-Jul-27 16:43 230 3 gusting 10 22.8
2014-Jul-27 16:33 243 2 gusting 8 22.8
2014-Jul-27 16:23 245 1 gusting 7 23.3
2014-Jul-27 16:13 234 1 gusting 8 23.3
2014-Jul-27 16:03 238 4 gusting 7 23.9
2014-Jul-27 15:53 223 4 gusting 11 23.9
2014-Jul-27 15:43 231 1 gusting 10 24.4
2014-Jul-27 15:33 227 4 gusting 10 24.4
2014-Jul-27 15:23 245 1 gusting 11 24.4
2014-Jul-27 15:13 246 2 gusting 10 24.4
2014-Jul-27 15:03 242 3 gusting 12 24.4
2014-Jul-27 14:53 226 4 gusting 10 24.4
2014-Jul-27 14:43 236 6 gusting 12 24.4
2014-Jul-27 14:33 237 5 gusting 11 25.0
2014-Jul-27 14:23 239 6 gusting 11 25.0
2014-Jul-27 14:13 248 5 gusting 10 25.0
2014-Jul-27 14:03 234 5 gusting 13 25.6
2014-Jul-27 13:53 240 5 gusting 12 26.1
2014-Jul-27 13:43 218 2 gusting 11 25.6
2014-Jul-27 13:33 243 4 gusting 12 26.1
2014-Jul-27 13:23 234 3 gusting 10 26.1
2014-Jul-27 13:13 249 3 gusting 10 26.1
2014-Jul-27 13:03 251 4 gusting 10 26.1
2014-Jul-27 12:53 244 2 gusting 6 26.1
2014-Jul-27 12:43 241 0 gusting 8 26.1
2014-Jul-27 12:33 229 1 gusting 10 25.6
2014-Jul-27 12:23 250 4 gusting 10 25.6
2014-Jul-27 12:13 234 2 gusting 8 25.6
2014-Jul-27 12:03 245 2 gusting 6 25.6
2014-Jul-27 11:53 237 2 gusting 7 25.6
2014-Jul-27 11:43 220 1 gusting 5 25.6
2014-Jul-27 11:33 230 0 gusting 5 25.0
2014-Jul-27 11:23 222 0 gusting 6 25.0
2014-Jul-27 11:13 192 2 gusting 5 24.4
2014-Jul-27 11:03 202 23.3
2014-Jul-27 10:53 202 1 gusting 4 23.3
2014-Jul-27 10:43 217 22.8
2014-Jul-27 10:33 217 23.3
2014-Jul-27 10:23 225 1 gusting 4 23.3
2014-Jul-27 10:13 234 22.8
2014-Jul-27 10:03 234 22.8
2014-Jul-27 09:53 234 22.2
2014-Jul-27 09:43 234 21.7
2014-Jul-27 09:33 234 21.7
2014-Jul-27 09:23 293 21.1
2014-Jul-27 09:13 296 20.6
2014-Jul-27 09:03 311 20.6
2014-Jul-27 08:53 317 0 gusting 2 20.0
2014-Jul-27 08:43 330 18.9
2014-Jul-27 08:33 330 18.9
2014-Jul-27 08:13 330 18.9
2014-Jul-27 08:03 337 18.9
2014-Jul-27 07:53 18.9
2014-Jul-27 07:43 005 17.8
2014-Jul-27 07:33 005 17.8
2014-Jul-27 07:23 005 17.8
2014-Jul-27 07:13 005 17.2
2014-Jul-27 07:03 005 17.2
2014-Jul-27 06:53 005 17.2
2014-Jul-27 06:43 005 17.2
2014-Jul-27 06:33 005 16.7
2014-Jul-27 06:23 005 16.1
2014-Jul-27 06:13 005 15.6
2014-Jul-27 06:03 005 15.0
2014-Jul-27 05:53 005 14.4
2014-Jul-27 05:43 005 14.4
2014-Jul-27 05:33 005 13.9
2014-Jul-27 05:23 005 13.3
2014-Jul-27 05:13 005 13.3
2014-Jul-27 05:03 005 13.3
2014-Jul-27 04:53 005 12.8
2014-Jul-27 04:43 005 12.8
2014-Jul-27 04:33 005 12.8
2014-Jul-27 04:23 005 12.8
2014-Jul-27 04:13 005 12.2
2014-Jul-27 04:03 005 12.2
2014-Jul-27 03:53 005 12.2
2014-Jul-27 03:43 005 11.7
2014-Jul-27 03:33 005 11.7
2014-Jul-27 03:23 005 11.7
2014-Jul-27 03:13 005 11.7
2014-Jul-27 03:03 005 11.7
2014-Jul-27 02:53 005 11.7
2014-Jul-27 02:43 005 11.7
2014-Jul-27 02:33 005 11.7
2014-Jul-27 02:23 005 11.7
2014-Jul-27 02:13 005 11.7
2014-Jul-27 02:03 005 11.7
2014-Jul-27 01:53 005 11.1
2014-Jul-27 01:43 005 11.1
2014-Jul-27 01:33 005 11.1
2014-Jul-27 01:23 005 11.7
2014-Jul-27 01:13 005 11.7
2014-Jul-27 01:03 005 11.7
2014-Jul-27 00:53 005 11.7
2014-Jul-27 00:43 005 11.7
2014-Jul-27 00:33 005 11.7
2014-Jul-27 00:23 005 11.7
2014-Jul-27 00:13 005 12.2
2014-Jul-27 00:03 005 12.2
2014-Jul-26 23:53 005 12.2
2014-Jul-26 23:43 005 12.2
2014-Jul-26 23:33 005 12.2
2014-Jul-26 23:23 005 12.2
2014-Jul-26 23:13 005 12.8
2014-Jul-26 23:03 005 12.8
2014-Jul-26 22:53 005 12.8
2014-Jul-26 22:43 005 13.3
2014-Jul-26 22:33 005 13.3
2014-Jul-26 22:23 005 13.3
2014-Jul-26 22:13 005 13.3
2014-Jul-26 22:03 005 13.3
2014-Jul-26 21:53 005 13.3
2014-Jul-26 21:43 005 13.9
2014-Jul-26 21:33 005 13.9
2014-Jul-26 21:23 005 14.4
2014-Jul-26 21:13 005 14.4
2014-Jul-26 21:03 005 14.4
2014-Jul-26 20:53 005 15.0
2014-Jul-26 20:43 005 15.0
2014-Jul-26 20:33 005 15.6
2014-Jul-26 20:23 005 2 gusting 6 15.6
2014-Jul-26 20:13 005 2 gusting 5 15.6
2014-Jul-26 20:03 005 1 gusting 2 15.6